Location: Cronhütte
(48.9135°N, 9.6869°E)
Time: 16:00:07
(UTC+00:00)

FORMOSAT 3E - Pass Details

Date: 07 May 2025
Orbit: 742 x 834 km, 72.0° (Epoch: 13 May)

Event Time Altitude Azimuth Distance (km) Brightness Sun altitude
Rises 23:56:27 0° 319° (NW) 3,208 11.8 -23.7°
Reaches altitude 10° 23:59:42 10° 298° (WNW) 2,290 10.6 -23.6°
Enters shadow 00:02:20 16° 267° (W) 1,938 9.9 -23.5°
